Location: Aragnouet
(42.7874°N, 0.2165°E)
Time: 01:56:30
(UTC+00:00)

STARLINK-1211 - Pass Details

Date: 09 April 2020
Orbit: 549 x 551 km, 53.0° (Epoch: 05 June)

Event Time Altitude Azimuth Distance (km) Brightness Sun altitude
Rises 19:49:08 0° 306° (NW) 2,726 9.0 -13.7°
Reaches altitude 10° 19:51:22 10° 307° (NW) 1,829 7.6 -14.1°
Maximum altitude 19:55:32 84° 36° (NE) 558 3.6 -14.8°
Enters shadow 19:57:40 28° 123° (ESE) 1,054 4.4 -15.1°
